Wetterdaten: Woche 14.01.19 - 20.01.19 (KW3)
Datum Zeit Temperatur Luftfeuchte Luftdruck Niederschlag Windrichtung Sonnenschein Solar Wind
14.01.2019 00:00 4,3 C 97 % 1003,9 hPa 0,4 l/m W 0,00 h 0 W/m 21,9 km/h (4 Bft)
14.01.2019 01:00 4,1 C 97 % 1003,6 hPa 0,8 l/m W 0,00 h 0 W/m 22,5 km/h (4 Bft)
14.01.2019 02:00 3,8 C 97 % 1004,4 hPa 1,6 l/m W 0,00 h 0 W/m 21,1 km/h (4 Bft)
14.01.2019 03:00 2,9 C 97 % 1005,2 hPa 1,0 l/m W-NW 0,00 h 0 W/m 9,7 km/h (2 Bft)
14.01.2019 04:00 2,6 C 97 % 1005,5 hPa 0,0 l/m W-NW 0,00 h 0 W/m 7,8 km/h (2 Bft)
14.01.2019 05:00 2,1 C 97 % 1006,7 hPa 0,0 l/m N-NW 0,00 h 0 W/m 6,0 km/h (2 Bft)
14.01.2019 06:00 2,1 C 97 % 1007,7 hPa 0,0 l/m W-NW 0,00 h 0 W/m 4,6 km/h (1 Bft)
14.01.2019 07:00 2,0 C 97 % 1008,2 hPa 0,2 l/m W-NW 0,00 h 0 W/m 13,4 km/h (3 Bft)
14.01.2019 08:00 2,2 C 97 % 1009,2 hPa 0,0 l/m W 0,00 h 15 W/m 9,4 km/h (2 Bft)
14.01.2019 09:00 2,3 C 96 % 1010,2 hPa 0,0 l/m W 0,08 h 65 W/m 15,2 km/h (3 Bft)
14.01.2019 10:00 2,6 C 95 % 1011,0 hPa 0,0 l/m W 0,00 h 79 W/m 14,6 km/h (3 Bft)
14.01.2019 11:00 3,0 C 93 % 1011,1 hPa 0,0 l/m W 0,00 h 115 W/m 17,3 km/h (3 Bft)
14.01.2019 12:00 3,2 C 93 % 1010,9 hPa 0,0 l/m W 0,08 h 131 W/m 17,6 km/h (3 Bft)
14.01.2019 13:00 3,4 C 91 % 1010,8 hPa 0,0 l/m W 0,00 h 113 W/m 18,1 km/h (3 Bft)
14.01.2019 14:00 3,6 C 90 % 1010,9 hPa 0,0 l/m W-NW 0,25 h 126 W/m 20,2 km/h (4 Bft)
14.01.2019 15:00 3,7 C 88 % 1011,4 hPa 0,0 l/m W-NW 0,00 h 51 W/m 20,4 km/h (4 Bft)
14.01.2019 16:00 2,7 C 89 % 1012,9 hPa 0,6 l/m N-NW 0,00 h 14 W/m 21,7 km/h (4 Bft)
14.01.2019 17:00 1,0 C 93 % 1014,5 hPa 0,4 l/m N-NW 0,00 h 0 W/m 17,3 km/h (3 Bft)
14.01.2019 18:00 0,5 C 94 % 1015,7 hPa 0,0 l/m N-NW 0,00 h 0 W/m 7,0 km/h (2 Bft)
14.01.2019 19:00 0,1 C 95 % 1016,6 hPa 0,0 l/m N 0,00 h 0 W/m 2,8 km/h (1 Bft)
14.01.2019 20:00 -0,4 C 95 % 1017,3 hPa 0,0 l/m N 0,00 h 0 W/m 0,0 km/h (0 Bft)
14.01.2019 21:00 -0,6 C 96 % 1018,0 hPa 0,0 l/m W-NW 0,00 h 0 W/m 2,3 km/h (1 Bft)
14.01.2019 22:00 -0,4 C 95 % 1018,5 hPa 0,0 l/m N-NW 0,00 h 0 W/m 8,5 km/h (2 Bft)
14.01.2019 23:00 -0,6 C 94 % 1019,1 hPa 0,0 l/m W-NW 0,00 h 0 W/m 6,2 km/h (2 Bft)
15.01.2019 00:00 -0,9 C 93 % 1019,6 hPa 0,0 l/m N 0,00 h 0 W/m 0,0 km/h (0 Bft)
15.01.2019 01:00 -1,1 C 94 % 1020,4 hPa 0,0 l/m W-NW 0,00 h 0 W/m 3,3 km/h (1 Bft)
15.01.2019 02:00 -0,4 C 95 % 1021,1 hPa 0,0 l/m W-NW 0,00 h 0 W/m 7,1 km/h (2 Bft)
15.01.2019 03:00 -0,0 C 95 % 1021,7 hPa 0,0 l/m W 0,00 h 0 W/m 7,5 km/h (2 Bft)
15.01.2019 04:00 0,1 C 94 % 1021,9 hPa 0,0 l/m W 0,00 h 0 W/m 11,6 km/h (2 Bft)
15.01.2019 05:00 0,1 C 93 % 1022,2 hPa 0,0 l/m W 0,00 h 0 W/m 12,0 km/h (2 Bft)
15.01.2019 06:00 -0,1 C 91 % 1022,5 hPa 0,0 l/m W-SW 0,00 h 0 W/m 10,9 km/h (2 Bft)
15.01.2019 07:00 -0,3 C 90 % 1022,8 hPa 0,0 l/m SW 0,00 h 0 W/m 10,6 km/h (2 Bft)
15.01.2019 08:00 -0,4 C 90 % 1023,0 hPa 0,0 l/m SW 0,00 h 11 W/m 9,9 km/h (2 Bft)
15.01.2019 09:00 -0,3 C 93 % 1023,1 hPa 0,0 l/m SW 0,00 h 68 W/m 12,0 km/h (2 Bft)
15.01.2019 10:00 0,3 C 95 % 1023,1 hPa 0,0 l/m SW 0,25 h 138 W/m 12,1 km/h (2 Bft)
15.01.2019 11:00 1,1 C 94 % 1022,7 hPa 0,0 l/m SW 0,08 h 155 W/m 13,7 km/h (3 Bft)
15.01.2019 12:00 2,0 C 92 % 1022,2 hPa 0,0 l/m W-SW 0,50 h 212 W/m 14,9 km/h (3 Bft)
15.01.2019 13:00 2,9 C 87 % 1021,7 hPa 0,0 l/m W-SW 1,00 h 286 W/m 17,7 km/h (3 Bft)
15.01.2019 14:00 3,3 C 84 % 1021,4 hPa 0,0 l/m SW 1,00 h 227 W/m 18,6 km/h (3 Bft)
15.01.2019 15:00 3,1 C 84 % 1021,4 hPa 0,0 l/m SW 0,67 h 112 W/m 16,4 km/h (3 Bft)
15.01.2019 16:00 2,5 C 87 % 1021,5 hPa 0,0 l/m W-SW 0,00 h 16 W/m 16,2 km/h (3 Bft)
15.01.2019 17:00 2,2 C 88 % 1021,5 hPa 0,0 l/m W-SW 0,00 h 0 W/m 14,0 km/h (3 Bft)
15.01.2019 18:00 1,9 C 89 % 1021,5 hPa 0,0 l/m W-SW 0,00 h 0 W/m 10,6 km/h (2 Bft)
15.01.2019 19:00 1,8 C 89 % 1021,5 hPa 0,0 l/m W-SW 0,00 h 0 W/m 4,3 km/h (1 Bft)
15.01.2019 20:00 0,6 C 90 % 1021,2 hPa 0,0 l/m W-SW 0,00 h 0 W/m 2,7 km/h (1 Bft)
15.01.2019 21:00 0,1 C 92 % 1021,1 hPa 0,0 l/m W-SW 0,00 h 0 W/m 4,7 km/h (1 Bft)
15.01.2019 22:00 -0,1 C 94 % 1020,9 hPa 0,0 l/m W-SW 0,00 h 0 W/m 12,2 km/h (2 Bft)
15.01.2019 23:00 -0,3 C 93 % 1020,6 hPa 0,0 l/m SW 0,00 h 0 W/m 3,1 km/h (1 Bft)
16.01.2019 00:00 -1,5 C 93 % 1020,0 hPa 0,0 l/m N 0,00 h 0 W/m 0,0 km/h (0 Bft)
16.01.2019 01:00 -2,5 C 94 % 1019,6 hPa 0,0 l/m N 0,00 h 0 W/m 0,0 km/h (0 Bft)
16.01.2019 02:00 -3,3 C 94 % 1019,3 hPa 0,0 l/m N 0,00 h 0 W/m 0,0 km/h (0 Bft)
16.01.2019 03:00 -4,1 C 94 % 1019,0 hPa 0,0 l/m N 0,00 h 0 W/m 0,0 km/h (0 Bft)
16.01.2019 04:00 -4,8 C 94 % 1018,5 hPa 0,0 l/m N 0,00 h 0 W/m 0,0 km/h (0 Bft)
16.01.2019 05:00 -5,4 C 94 % 1017,9 hPa 0,0 l/m N 0,00 h 0 W/m 0,0 km/h (0 Bft)
16.01.2019 06:00 -6,0 C 95 % 1017,4 hPa 0,0 l/m N 0,00 h 0 W/m 0,0 km/h (0 Bft)
16.01.2019 07:00 -6,0 C 95 % 1017,0 hPa 0,0 l/m N 0,00 h 0 W/m 0,0 km/h (0 Bft)
16.01.2019 08:00 -6,1 C 95 % 1016,9 hPa 0,0 l/m N 0,42 h 29 W/m 0,0 km/h (0 Bft)
16.01.2019 09:00 -5,2 C 96 % 1016,8 hPa 0,0 l/m SW 0,25 h 89 W/m 0,4 km/h (0 Bft)
16.01.2019 10:00 -2,8 C 97 % 1016,6 hPa 0,0 l/m SW 0,83 h 221 W/m 2,1 km/h (1 Bft)
16.01.2019 11:00 -0,7 C 97 % 1016,0 hPa 0,2 l/m S-SO 1,00 h 328 W/m 9,9 km/h (2 Bft)
16.01.2019 12:00 1,3 C 92 % 1014,9 hPa 0,0 l/m S 1,00 h 348 W/m 12,2 km/h (2 Bft)
16.01.2019 13:00 2,9 C 85 % 1014,0 hPa 0,0 l/m S-SW 1,00 h 320 W/m 11,8 km/h (2 Bft)
16.01.2019 14:00 2,7 C 83 % 1013,3 hPa 0,0 l/m S-SW 0,92 h 208 W/m 10,9 km/h (2 Bft)
16.01.2019 15:00 2,5 C 83 % 1012,8 hPa 0,0 l/m S-SW 0,75 h 120 W/m 4,4 km/h (1 Bft)
16.01.2019 16:00 1,9 C 85 % 1012,4 hPa 0,0 l/m S 0,08 h 26 W/m 0,8 km/h (0 Bft)
16.01.2019 17:00 1,1 C 86 % 1011,9 hPa 0,0 l/m S 0,00 h 0 W/m 0,5 km/h (0 Bft)
16.01.2019 18:00 0,2 C 87 % 1011,6 hPa 0,0 l/m N 0,00 h 0 W/m 0,0 km/h (0 Bft)
16.01.2019 19:00 -0,4 C 88 % 1011,3 hPa 0,0 l/m N 0,00 h 0 W/m 0,0 km/h (0 Bft)
16.01.2019 20:00 -0,8 C 90 % 1011,0 hPa 0,0 l/m N 0,00 h 0 W/m 0,8 km/h (0 Bft)
16.01.2019 21:00 -0,9 C 91 % 1010,9 hPa 0,0 l/m N 0,00 h 0 W/m 1,1 km/h (0 Bft)
16.01.2019 22:00 -0,8 C 91 % 1010,7 hPa 0,0 l/m S 0,00 h 0 W/m 0,9 km/h (0 Bft)
16.01.2019 23:00 -0,5 C 91 % 1010,3 hPa 0,0 l/m W-SW 0,00 h 0 W/m 10,0 km/h (2 Bft)
17.01.2019 00:00 3,3 C 80 % 1009,8 hPa 0,0 l/m W-SW 0,00 h 0 W/m 23,3 km/h (4 Bft)
17.01.2019 01:00 3,7 C 78 % 1009,8 hPa 0,0 l/m W-SW 0,00 h 0 W/m 27,2 km/h (4 Bft)
17.01.2019 02:00 2,9 C 80 % 1010,2 hPa 0,0 l/m SW 0,00 h 0 W/m 16,2 km/h (3 Bft)
17.01.2019 03:00 3,0 C 83 % 1010,3 hPa 0,0 l/m SW 0,00 h 0 W/m 18,5 km/h (3 Bft)
17.01.2019 04:00 2,2 C 86 % 1010,0 hPa 0,0 l/m SW 0,00 h 0 W/m 10,7 km/h (2 Bft)
17.01.2019 05:00 2,1 C 90 % 1009,5 hPa 0,0 l/m SW 0,00 h 0 W/m 13,7 km/h (3 Bft)
17.01.2019 06:00 3,0 C 91 % 1008,8 hPa 0,0 l/m W-SW 0,00 h 0 W/m 18,6 km/h (3 Bft)
17.01.2019 07:00 3,2 C 89 % 1008,2 hPa 0,0 l/m SW 0,00 h 0 W/m 18,0 km/h (3 Bft)
17.01.2019 08:00 3,9 C 86 % 1007,8 hPa 0,0 l/m SW 0,50 h 29 W/m 22,1 km/h (4 Bft)
17.01.2019 09:00 4,8 C 82 % 1007,7 hPa 0,0 l/m W-SW 0,08 h 68 W/m 24,9 km/h (4 Bft)
17.01.2019 10:00 5,3 C 83 % 1007,8 hPa 0,0 l/m SW 0,58 h 184 W/m 27,5 km/h (4 Bft)
17.01.2019 11:00 5,7 C 83 % 1007,6 hPa 0,0 l/m W-SW 0,17 h 150 W/m 26,0 km/h (4 Bft)
17.01.2019 12:00 5,3 C 87 % 1007,1 hPa 0,0 l/m W-SW 0,00 h 116 W/m 27,8 km/h (4 Bft)
17.01.2019 13:00 4,6 C 88 % 1007,0 hPa 0,0 l/m W-SW 0,00 h 56 W/m 20,9 km/h (4 Bft)
17.01.2019 14:00 4,4 C 88 % 1007,0 hPa 0,0 l/m W-SW 0,00 h 56 W/m 21,8 km/h (4 Bft)
17.01.2019 15:00 4,3 C 87 % 1007,5 hPa 0,0 l/m W-SW 0,00 h 41 W/m 23,6 km/h (4 Bft)
17.01.2019 16:00 4,0 C 86 % 1008,2 hPa 0,0 l/m SW 0,00 h 15 W/m 23,6 km/h (4 Bft)
17.01.2019 17:00 3,2 C 90 % 1009,0 hPa 0,0 l/m W-SW 0,00 h 0 W/m 23,6 km/h (4 Bft)
17.01.2019 18:00 3,1 C 88 % 1009,5 hPa 0,0 l/m W-SW 0,00 h 0 W/m 25,7 km/h (4 Bft)
17.01.2019 19:00 2,5 C 89 % 1009,9 hPa 0,0 l/m W-SW 0,00 h 0 W/m 23,5 km/h (4 Bft)
17.01.2019 20:00 2,3 C 87 % 1010,2 hPa 0,0 l/m W-SW 0,00 h 0 W/m 20,2 km/h (4 Bft)
17.01.2019 21:00 2,2 C 87 % 1011,0 hPa 0,0 l/m W 0,00 h 0 W/m 20,4 km/h (4 Bft)
17.01.2019 22:00 1,7 C 86 % 1011,6 hPa 0,0 l/m W-NW 0,00 h 0 W/m 12,4 km/h (3 Bft)
17.01.2019 23:00 1,2 C 88 % 1011,7 hPa 0,0 l/m W-SW 0,00 h 0 W/m 19,3 km/h (3 Bft)
18.01.2019 00:00 1,3 C 88 % 1012,2 hPa 0,0 l/m W-SW 0,00 h 0 W/m 18,4 km/h (3 Bft)
18.01.2019 01:00 0,6 C 91 % 1012,4 hPa 0,2 l/m W-NW 0,00 h 0 W/m 16,0 km/h (3 Bft)
18.01.2019 02:00 0,0 C 89 % 1013,5 hPa 0,0 l/m W-NW 0,00 h 0 W/m 10,5 km/h (2 Bft)
18.01.2019 03:00 -0,7 C 87 % 1014,3 hPa 0,0 l/m W-NW 0,00 h 0 W/m 9,0 km/h (2 Bft)
18.01.2019 04:00 -0,8 C 83 % 1014,7 hPa 0,0 l/m W-NW 0,00 h 0 W/m 13,7 km/h (3 Bft)
18.01.2019 05:00 -0,7 C 82 % 1015,5 hPa 0,0 l/m W 0,00 h 0 W/m 9,3 km/h (2 Bft)
18.01.2019 06:00 -0,8 C 81 % 1016,3 hPa 0,0 l/m W 0,00 h 0 W/m 8,2 km/h (2 Bft)
18.01.2019 07:00 -0,9 C 82 % 1016,9 hPa 0,0 l/m W-SW 0,00 h 0 W/m 7,1 km/h (2 Bft)
18.01.2019 08:00 -1,3 C 83 % 1017,7 hPa 0,0 l/m SW 0,00 h 19 W/m 8,7 km/h (2 Bft)
18.01.2019 09:00 -1,1 C 83 % 1018,3 hPa 0,0 l/m W 0,00 h 61 W/m 5,6 km/h (1 Bft)
18.01.2019 10:00 -0,6 C 80 % 1019,0 hPa 0,0 l/m W 0,00 h 82 W/m 3,4 km/h (1 Bft)
18.01.2019 11:00 -0,2 C 78 % 1019,0 hPa 0,0 l/m W 0,42 h 182 W/m 2,3 km/h (1 Bft)
18.01.2019 12:00 0,5 C 75 % 1018,6 hPa 0,0 l/m N 0,50 h 218 W/m 0,0 km/h (0 Bft)
18.01.2019 13:00 1,1 C 70 % 1018,1 hPa 0,0 l/m N-NO 1,00 h 274 W/m 1,5 km/h (1 Bft)
18.01.2019 14:00 1,7 C 67 % 1018,0 hPa 0,0 l/m O-NO 1,00 h 244 W/m 6,7 km/h (2 Bft)
18.01.2019 15:00 1,3 C 67 % 1018,1 hPa 0,0 l/m O 0,67 h 113 W/m 8,9 km/h (2 Bft)
18.01.2019 16:00 0,5 C 75 % 1018,1 hPa 0,0 l/m O-NO 0,17 h 30 W/m 6,0 km/h (2 Bft)
18.01.2019 17:00 -0,5 C 79 % 1017,9 hPa 0,0 l/m N 0,00 h 0 W/m 1,2 km/h (1 Bft)
18.01.2019 18:00 -1,4 C 83 % 1017,6 hPa 0,0 l/m N 0,00 h 0 W/m 2,5 km/h (1 Bft)
18.01.2019 19:00 -1,9 C 86 % 1017,6 hPa 0,0 l/m O-NO 0,00 h 0 W/m 7,1 km/h (2 Bft)
18.01.2019 20:00 -2,2 C 87 % 1017,5 hPa 0,0 l/m O-NO 0,00 h 0 W/m 2,8 km/h (1 Bft)
18.01.2019 21:00 -2,6 C 88 % 1017,4 hPa 0,0 l/m O-NO 0,00 h 0 W/m 4,7 km/h (1 Bft)
18.01.2019 22:00 -2,7 C 89 % 1017,1 hPa 0,0 l/m O-NO 0,00 h 0 W/m 7,4 km/h (2 Bft)
18.01.2019 23:00 -2,8 C 88 % 1017,0 hPa 0,0 l/m O-NO 0,00 h 0 W/m 10,5 km/h (2 Bft)
19.01.2019 00:00 -3,0 C 89 % 1016,6 hPa 0,0 l/m O-NO 0,00 h 0 W/m 4,4 km/h (1 Bft)
19.01.2019 01:00 -3,3 C 89 % 1016,2 hPa 0,0 l/m O-NO 0,00 h 0 W/m 1,6 km/h (1 Bft)
19.01.2019 02:00 -3,9 C 89 % 1016,3 hPa 0,0 l/m N 0,00 h 0 W/m 0,0 km/h (0 Bft)
19.01.2019 03:00 -4,8 C 89 % 1016,3 hPa 0,0 l/m O-NO 0,00 h 0 W/m 0,9 km/h (0 Bft)
19.01.2019 04:00 -5,1 C 91 % 1015,9 hPa 0,0 l/m O-NO 0,00 h 0 W/m 2,7 km/h (1 Bft)
19.01.2019 05:00 -5,4 C 92 % 1015,9 hPa 0,0 l/m N 0,00 h 0 W/m 0,3 km/h (0 Bft)
19.01.2019 06:00 -5,4 C 93 % 1015,8 hPa 0,0 l/m N 0,00 h 0 W/m 0,7 km/h (0 Bft)
19.01.2019 07:00 -5,3 C 94 % 1015,8 hPa 0,0 l/m N 0,00 h 0 W/m 0,0 km/h (0 Bft)
19.01.2019 08:00 -5,5 C 94 % 1015,9 hPa 0,0 l/m N 0,00 h 19 W/m 0,0 km/h (0 Bft)
19.01.2019 09:00 -5,2 C 94 % 1016,2 hPa 0,0 l/m O-NO 0,00 h 51 W/m 0,9 km/h (0 Bft)
19.01.2019 10:00 -4,8 C 95 % 1016,5 hPa 0,0 l/m NO 0,00 h 76 W/m 2,3 km/h (1 Bft)
19.01.2019 11:00 -4,4 C 94 % 1016,5 hPa 0,0 l/m O 0,00 h 106 W/m 7,4 km/h (2 Bft)
19.01.2019 12:00 -4,3 C 92 % 1015,9 hPa 0,0 l/m W-SW 0,00 h 122 W/m 5,1 km/h (1 Bft)
19.01.2019 13:00 -3,6 C 90 % 1015,2 hPa 0,0 l/m W-SW 0,00 h 135 W/m 2,4 km/h (1 Bft)
19.01.2019 14:00 -3,0 C 88 % 1014,6 hPa 0,0 l/m N 0,67 h 183 W/m 0,8 km/h (0 Bft)
19.01.2019 15:00 -2,7 C 85 % 1014,2 hPa 0,0 l/m N 0,75 h 127 W/m 0,0 km/h (0 Bft)
19.01.2019 16:00 -3,0 C 86 % 1013,9 hPa 0,0 l/m W-SW 0,00 h 25 W/m 2,3 km/h (1 Bft)
19.01.2019 17:00 -3,6 C 87 % 1013,8 hPa 0,0 l/m N 0,00 h 0 W/m 0,0 km/h (0 Bft)
19.01.2019 18:00 -4,4 C 87 % 1013,9 hPa 0,0 l/m N 0,00 h 0 W/m 0,0 km/h (0 Bft)
19.01.2019 19:00 -5,8 C 87 % 1013,9 hPa 0,0 l/m N 0,00 h 0 W/m 0,0 km/h (0 Bft)
19.01.2019 20:00 -6,9 C 89 % 1013,8 hPa 0,0 l/m N 0,00 h 0 W/m 0,0 km/h (0 Bft)
19.01.2019 21:00 -6,9 C 91 % 1013,8 hPa 0,0 l/m N 0,00 h 0 W/m 0,0 km/h (0 Bft)
19.01.2019 22:00 -7,0 C 90 % 1013,7 hPa 0,0 l/m N 0,00 h 0 W/m 0,0 km/h (0 Bft)
19.01.2019 23:00 -7,7 C 89 % 1013,6 hPa 0,0 l/m N 0,00 h 0 W/m 0,0 km/h (0 Bft)
20.01.2019 00:00 -8,1 C 90 % 1013,5 hPa 0,0 l/m N 0,00 h 0 W/m 0,0 km/h (0 Bft)
20.01.2019 01:00 -8,0 C 90 % 1013,4 hPa 0,0 l/m N 0,00 h 0 W/m 0,0 km/h (0 Bft)
20.01.2019 02:00 -8,3 C 91 % 1013,6 hPa 0,0 l/m N 0,00 h 0 W/m 0,0 km/h (0 Bft)
20.01.2019 03:00 -7,7 C 93 % 1013,8 hPa 0,0 l/m N 0,00 h 0 W/m 0,0 km/h (0 Bft)
20.01.2019 04:00 -7,4 C 93 % 1013,7 hPa 0,0 l/m N 0,00 h 0 W/m 0,3 km/h (0 Bft)
20.01.2019 05:00 -7,5 C 94 % 1013,6 hPa 0,0 l/m N 0,00 h 0 W/m 0,0 km/h (0 Bft)
20.01.2019 06:00 -7,6 C 94 % 1013,8 hPa 0,0 l/m N 0,00 h 0 W/m 0,0 km/h (0 Bft)
20.01.2019 07:00 -7,3 C 95 % 1014,0 hPa 0,0 l/m N 0,00 h 0 W/m 0,0 km/h (0 Bft)
20.01.2019 08:00 -6,9 C 95 % 1014,6 hPa 0,0 l/m N 0,00 h 22 W/m 0,0 km/h (0 Bft)
20.01.2019 09:00 -6,2 C 95 % 1014,8 hPa 0,0 l/m N 0,00 h 66 W/m 0,0 km/h (0 Bft)
20.01.2019 10:00 -5,0 C 96 % 1015,1 hPa 0,0 l/m N 0,67 h 192 W/m 0,0 km/h (0 Bft)
20.01.2019 11:00 -2,7 C 94 % 1015,4 hPa 0,0 l/m N 1,00 h 293 W/m 0,3 km/h (0 Bft)
20.01.2019 12:00 -0,9 C 86 % 1015,2 hPa 0,0 l/m SW 0,42 h 199 W/m 2,0 km/h (1 Bft)
20.01.2019 13:00 0,4 C 77 % 1014,7 hPa 0,0 l/m SW 0,75 h 240 W/m 2,8 km/h (1 Bft)
20.01.2019 14:00 0,9 C 74 % 1014,5 hPa 0,0 l/m N 0,92 h 242 W/m 0,3 km/h (0 Bft)
20.01.2019 15:00 1,3 C 75 % 1014,6 hPa 0,0 l/m N 0,50 h 116 W/m 0,0 km/h (0 Bft)
20.01.2019 16:00 0,6 C 81 % 1015,0 hPa 0,0 l/m SW 0,08 h 25 W/m 4,3 km/h (1 Bft)
20.01.2019 17:00 -0,6 C 86 % 1015,4 hPa 0,0 l/m SW 0,00 h 5 W/m 6,0 km/h (2 Bft)
20.01.2019 18:00 -1,2 C 89 % 1016,0 hPa 0,0 l/m W 0,00 h 0 W/m 2,7 km/h (1 Bft)
20.01.2019 19:00 -1,6 C 90 % 1016,5 hPa 0,0 l/m W 0,00 h 0 W/m 3,6 km/h (1 Bft)
20.01.2019 20:00 -1,7 C 91 % 1016,9 hPa 0,0 l/m W 0,00 h 0 W/m 1,5 km/h (1 Bft)
20.01.2019 21:00 -1,9 C 91 % 1017,2 hPa 0,0 l/m N-NW 0,00 h 0 W/m 7,0 km/h (2 Bft)
20.01.2019 22:00 -2,3 C 91 % 1017,5 hPa 0,0 l/m N-NW 0,00 h 0 W/m 3,5 km/h (1 Bft)
20.01.2019 23:00 -2,7 C 92 % 1018,0 hPa 0,0 l/m N 0,00 h 0 W/m 9,3 km/h (2 Bft)
Min-Datum _ 20.01.19 18.01.19 14.01.19 - - - - 14.01.19
_ Min-Zeit 02:05 14:00 01:15 - - - - 03:05
Minimum _ -8,5 C 65 % 1003,4 hPa - - - - 0,0 km/h (0 Bft)
Max-Datum _ 17.01.19 16.01.19 15.01.19 14.01.19 - 14.01.19 15.01.19 14.01.19
_ Max-Zeit 10:55 01:25 10:10 02:45 - 09:20 13:20 16:25
Maximum _ 5,9 C 100 % 1023,4 hPa 1,6 l/m - 0,08 h 388 W/m 41,8 km/h
N-NW (6 Bft)
Durchschnitt _ -0,7 C 89 % 1014,8 hPa #5,4 l/m W-SW #21:00 h 122 W/m 8,2 km/h (2 Bft)